Regional Weather Roundup
Issued by NWS Upton, NY

Current Version | Previous Version | Text Only | Print | Product List | Glossary On
Versions: 1 2 3 4 5 6 7 8 9 10 11 12 13 14 15 16 17 18 19 20 21 22 23 24 25 26 27
000 ASUS41 KOKX 020508 RWROKX REGIONAL WEATHER ROUNDUP NATIONAL WEATHER SERVICE NEW YORK NY 1200 AM EST FRI DEC 02 2016 NOTE: "FAIR" INDICATES FEW OR NO CLOUDS BELOW 12,000 FEET WITH NO SIGNIFICANT WEATHER AND/OR OBSTRUCTIONS TO VISIBILITY. NYZ071-072-176-178-NJZ106-104-020600- NEW YORK CITY METRO AREA CITY SKY/WX TMP DP RH WIND PRES REMARKS Central Park PTCLDY 42 27 55 SW6 29.85S Wall St Helipt CLEAR 44 30 57 W14G24 29.85S Bronx Bot Gard NOT AVBL LaGuardia APRT PTCLDY 45 27 49 W18G28 29.83S Kennedy INTL CLEAR 44 27 51 W18G24 29.85R Breezy Point N/A 41 N/A N/A W13G22 N/A Newark/Liberty CLEAR 42 27 55 W12 29.85R Teterboro CLEAR 42 26 53 W8 29.82S $$ NYZ177-179-078>081-020600- LONG ISLAND NEW YORK CITY SKY/WX TMP DP RH WIND PRES REMARKS Jones Beach N/A 43 N/A N/A W17G23 N/A Matinecock PT N/A 45 N/A N/A W25 N/A Farmingdale CLEAR 43 28 55 W12 29.82S MacArthur/ISP CLEAR 41 28 60 W9 29.81R Shirley CLEAR 42 28 57 W9 29.81S Westhampton CLEAR 39 28 64 W8 29.81S WCI 33 Southampton NOT AVBL Bridgehampton NOT AVBL East Hampton N/A 44 29 57 W9 29.78S Montauk N/A 46 33 60 W15G24 29.78S $$ NYZ052-065-067-020600- HUDSON VALLEY CITY SKY/WX TMP DP RH WIND PRES REMARKS White Plains CLEAR 40 27 59 W9 29.79S WCI 34 Newburgh MOCLDY 39 30 70 W12 29.81R WCI 32 Montgomery CLOUDY 41 28 60 W8 29.79S Poughkeepsie CLOUDY 41 28 60 SW15 29.78F Albany MOCLDY 40 30 67 SW5 29.74R $$ NJZ001-105-106-008-010-013-015-019>022-104-020600- NEW JERSEY CITY SKY/WX TMP DP RH WIND PRES REMARKS Newark/Liberty CLEAR 42 27 55 W12 29.85R Teterboro CLEAR 42 26 53 W8 29.82S Caldwell CLEAR 41 27 57 SW5 29.84S Somerville CLEAR 36 26 67 CALM 29.85R Linden N/A 41 27 57 W8 29.86R Sussex PTCLDY 38 27 64 VRB3 29.82R Andover N/A 36 26 67 CALM 29.83S Trenton CLEAR 40 26 57 SW6 29.86S Millville CLEAR 42 29 59 W8 29.92F Atlantic City CLEAR 42 26 53 W7 29.91S Wrightstown PTCLDY 38 27 62 W6 29.86R WCI 34 Toms River CLEAR 37 27 67 W5 29.90R WCI 33 Belmar CLEAR N/A N/A N/A W6 29.88R $$ PAZ047>061-062-071-020600- EASTERN PENNSYLVANIA CITY SKY/WX TMP DP RH WIND PRES REMARKS Philadelphia CLEAR 43 27 53 W14 29.92R Allentown CLEAR 37 26 64 SW8 29.87R WCI 31 Scranton MOCLDY 37 28 70 SW7 29.83R WCI 32 $$ CTZ002-004>006-009-010-012-RIZ004-006-007-MAZ004-011-015-020600- SOUTHERN NEW ENGLAND IN CT CITY SKY/WX TMP DP RH WIND PRES REMARKS Bradley INTL PTCLDY 37 30 75 W10 29.75S WCI 30 Hartford PTCLDY 41 29 62 VRB3 29.76S Danbury CLEAR 39 27 62 W6 29.78S WCI 35 Wtrbury/Oxford PTCLDY 39 25 56 CALM 29.76F Bridgeport CLEAR 44 28 53 W7 29.80R Meriden PTCLDY 43 27 53 CALM 29.77S New Haven CLEAR 43 30 60 W7 29.78F Chester N/A 41 28 60 VRB7 29.76S Groton CLEAR 45 32 60 W9 29.75F Wilimantic CLEAR 42 30 62 W10 29.75R IN RI CITY SKY/WX TMP DP RH WIND PRES REMARKS Providence CLEAR 41 31 67 W7 29.74R Block Island CLEAR 45 33 63 W17G26 29.76S Westerly CLEAR 43 29 57 W7 29.75F IN MA CITY SKY/WX TMP DP RH WIND PRES REMARKS Boston PTCLDY 43 31 62 W9G21 29.69R Worcester CLEAR 37 28 70 W9 29.68R WCI 30 Westfield PTCLDY 37 31 78 SW6 29.74S WCI 32 Provincetown CLEAR 45 33 63 W22G32 29.69R Nantucket CLEAR 45 32 60 W20G28 29.71R $$ ANZ330-335-338-340-345-350-353-355-020600- COASTAL MARINE OBSERVATIONS STATION/POSITION TIME SKY/WX TEMP WIND PRES VSBY WAVE AIR SEA DIR/SP/G HT/PER (UTC) (F) (DEG/KT/KT) (MB) (MI) (FT/S) NY HARB ENTRANCE 0350 46 54 280/ 23/ 29 1009.9 4/ 4 20 S FIRE ISLAND 0350 48 55 290/ 23/ 29 1009.2 7/ 6 GREAT SOUTH BAY 0430 45 46 N/A 23 SSW MONTAUK P 0350 49 56 280/ 25/ 29 1008.0 7/ 6 15 E BARNEGAT LI 0430 54 N/A 5/ 4 HUDSON CANYON 0350 50 59 1009.5 10/ 7 KINGS POINT 0436 44 50 1009.8 EXECUTION ROCKS 0445 45 250/ 14/ 19 N/A CENTRAL LI SOUND 0445 47 52 280/ 19/ 23 N/A 3/ 5 EASTERN LI SOUND NOT AVBL ROBBINS REEF 0436 43 270/ 17/ 20 1010.7 $$ >>>>>>>>>>>>>>>>>>>>>>>>>>>> KEY <<<<<<<<<<<<<<<<<<<<<<<<<<< > < > SKY/WX - Sky Condition/Present Weather < > TMP - Temperature in Fahrenheit < > DP - Dew Point in Fahrenheit < > RH - Relative Humidity in Percent < > WIND - Direction (from) and Speed in MPH < > PRES - Mean Sea Level Pressure (inches of Hg) < > WCI - Wind Chill Index < > VSB - VISIBILITY IN MILES < > HX - HEAT INDEX < > TC - TEMPERATURE IN CELSIUS < > VRB - VARIABLE WIND DIRECTION < > < >>>>>>>>>>>>>>>>>>>>>>>>>>>> KEY <<<<<<<<<<<<<<<<<<<<<<<<<<<

USA.gov is the U.S. government's official web portal to all federal, state and local government web resources and services.